Tracking 19795 objects as of 19-Jul-2019
HD Live streaming from Space Station
objects crossing your sky now

FLOCK 2K 02

Track FLOCK 2K 02 now!
10-day predictions
FLOCK 2K 02 is classified as:


NORAD ID: 42853
Int'l Code: 2017-042AE
Perigee: 452.8 km
Apogee: 469.2 km
Inclination: 96.9 °
Period: 93.7 minutes
Semi major axis: 6832 km
RCS: Unknown
Launch date: July 14, 2017
Source: United States (US)
Launch site: TYURATAM MISSILE AND SPACE COMPLEX (TTMTR)
aabbcc
Your satellite tracking list
Your tracking list is empty




NASA's NSSDC Master Catalog

Two Line Element Set (TLE):
1 42853U 17042AE  19198.87429744 +.00002472 +00000-0 +69400-4 0  9997
2 42853 096.9366 078.0684 0012025 118.1949 242.0513 15.37371082112311
Source of the keplerian elements: AFSPC